Location: Whitehorse
(60.7170°N, 135.0500°W)
Time: 16:37:57
(UTC-07:00)

SL-16 R/B - Visible Passes

Search period start: 17 September 2014 00:00
Search period end: 27 September 2014 00:00
Orbit: 840 x 850 km, 71.0° (Epoch: 03 September)

Date Brightness Start Highest point End Pass type
(mag) Time Alt. Az. Time Alt. Az. Time Alt. Az.
17 Sep 4.6 03:29:54 10° ESE 03:31:55 12° E 03:33:56 10° ENE visible
17 Sep 3.1 05:10:03 14° S 05:14:42 45° ESE 05:20:06 10° NE visible
18 Sep 4.6 03:16:08 10° ESE 03:17:59 12° E 03:19:51 10° ENE visible
18 Sep 3.1 04:56:47 18° S 05:00:45 44° ESE 05:06:08 10° NE visible
18 Sep 2.4 06:39:09 10° WSW 06:44:48 63° NW 06:50:29 10° NE visible
19 Sep 4.6 03:02:24 10° ESE 03:04:04 11° E 03:05:44 10° ENE visible
19 Sep 3.1 04:43:28 22° S 04:46:48 43° ESE 04:52:10 10° NE visible
19 Sep 2.4 06:25:22 11° WSW 06:30:50 64° NW 06:36:32 10° NE visible
20 Sep 4.6 02:48:41 10° ESE 02:50:08 11° E 02:51:35 10° ENE visible
20 Sep 3.1 04:30:07 26° SSE 04:32:51 43° ESE 04:38:12 10° NE visible
20 Sep 2.4 06:12:01 14° WSW 06:16:52 65° NW 06:22:34 10° NE visible
21 Sep 4.6 02:35:01 10° ESE 02:36:12 11° E 02:37:24 10° E visible
21 Sep 3.1 04:16:43 30° SSE 04:18:54 42° ESE 04:24:14 10° NE visible
21 Sep 2.3 05:58:37 18° WSW 06:02:53 66° NW 06:08:36 10° NE visible
22 Sep 4.6 02:21:25 10° E 02:22:17 10° E 02:23:09 10° E visible
22 Sep 3.1 04:03:18 33° SSE 04:04:57 41° ESE 04:10:15 10° NE visible
22 Sep 2.3 05:45:12 22° WSW 05:48:55 67° NW 05:54:38 10° NE visible
23 Sep 4.6 02:08:06 10° E 02:08:21 10° E 02:08:37 10° E visible
23 Sep 3.0 03:49:51 36° SE 03:51:00 40° ESE 03:56:17 10° NE visible
23 Sep 2.3 05:31:44 27° WSW 05:34:57 68° NW 05:40:40 10° NE visible
24 Sep 3.0 03:36:22 38° SE 03:37:03 39° ESE 03:42:19 10° NE visible
24 Sep 2.3 05:18:15 32° WSW 05:20:59 69° NW 05:26:42 10° NE visible
24 Sep 3.3 07:00:50 10° W 07:06:01 34° NNW 07:11:13 10° NE visible
25 Sep 3.0 03:22:52 38° ESE 03:23:06 38° ESE 03:28:20 10° NE visible
25 Sep 2.3 05:04:45 38° WSW 05:07:01 71° NW 05:12:44 10° NE visible
25 Sep 3.3 06:46:50 10° W 06:52:02 35° NNW 06:57:14 10° NE visible
26 Sep 3.1 03:09:20 38° ESE 03:09:20 38° ESE 03:14:22 10° NE visible
26 Sep 2.2 04:51:13 44° WSW 04:53:03 72° NW 04:58:46 10° NE visible
26 Sep 3.3 06:33:07 11° W 06:38:03 35° NNW 06:43:16 10° NE visible
